Content
SEND FEEDBACK

Daily
Averages
Monthly
Summary
Romania

BACAU, ROMANIA


Home > Europe > Romania
Elevation: 623 feet     Latitude: 46 35N     Longitude: 026 59E

WEATHER
 
SELECT A DAY
Number of Records: 116,165;   Date Range: 1/10/97 - 8/12/14
 
SHARE

PRINT THIS DATA

[ ← Previous Day ]
WEATHER ALMANAC - FEBRUARY 13, 2013
[ Next Day → ]
[ °C ]   °F
Weather ElementAverageHighLow
Temperature33.8 °F37.4 °F (2:30 pm)26 °F (1:00 am)
Dewpoint33.5 °F37.4 °F (3:00 pm)24.8 °F (1:00 am)
Humidity98.4 %100 % (3:00 am)90 % (2:00 am)
Barometer30.18 in30.27 in (11:00 pm)30.12 in (12:00 am)
Wind Speed4.5 mph11.5 mph (6:30 am)
Weather ElementAverage
Visibility0.9 mi
Wind DirectionSSE (142.7 °)

Weather ElementTotal
Precipitation---
Heating Degree Days33.3 (Base 65)
Averaged from 63 records on February 13, 2013
WEATHER CONDITIONS BREAKOUT
WIND DIRECTION BREAKOUT
WEATHER BY HOUR - FEBRUARY 13, 2013
[ °C ]   °F
Local TimeTemperatureDewpointHumidityBarometerVisibilityWind DirectionWind SpeedGust SpeedPrecipitationEventsConditions
12:00 AM28.4 °F26.6 °F93 %30.12 in1.2 miCalmOvercast
1:00 AM26.0 °F25.0 °F92 %30.17 in2.0 miCalmMist
1:00 AM26.6 °F24.8 °F93 %30.12 in1.6 miCalmOvercast
2:00 AM27.0 °F25.0 °F90 %30.17 in2.0 miCalmMist
2:00 AM28.4 °F26.6 °F93 %30.12 in0.7 miCalmOvercast
3:00 AM28.0 °F28.0 °F98 %30.17 inCalm (160°)
3:00 AM28.4 °F28.4 °F100 %30.12 in0.1 miEast (100°)4.6 mphOvercast
4:00 AM28.4 °F28.4 °F100 %30.12 in0.1 miCalmSnowLight Snow Showers
4:00 AM28.0 °F28.0 °F99 %30.17 inCalm (70°)
5:00 AM28.0 °F28.0 °F100 %30.17 inCalm (140°)
5:00 AM30.2 °F30.2 °F100 %30.12 in0.0 miSSW (200°)4.6 mphFogLight Freezing Fog
5:30 AM32.0 °F32.0 °F100 %30.12 in0.0 miSSW (200°)4.6 mphFogLight Freezing Fog
6:00 AM29.0 °F29.0 °F100 %30.17 inCalm (150°)
6:00 AM32.0 °F32.0 °F100 %30.12 in0.0 miSouth (180°)4.6 mphFogLight Freezing Fog
6:30 AM33.8 °F33.8 °F100 %30.12 in0.1 miSSE (160°)11.5 mphFogFog
7:00 AM33.8 °F33.8 °F100 %30.15 in0.1 miSSE (160°)9.2 mphFogFog
7:00 AM31.0 °F31.0 °F100 %30.18 in0.0 miSSE (160°)2.2 mphFogPartial Fog
7:30 AM33.8 °F33.8 °F100 %30.15 in0.2 miSSE (160°)11.5 mphFogFog
8:00 AM32.0 °F32.0 °F100 %30.19 in0.0 miSSE (150°)4.5 mphFogPartial Fog
8:00 AM33.8 °F33.8 °F100 %30.15 in0.4 miSSE (160°)11.5 mphFogFog
8:30 AM33.8 °F33.8 °F100 %30.15 in0.2 miSSE (150°)9.2 mphFogLight Drizzle
9:00 AM33.0 °F33.0 °F98 %30.20 in0.0 miSSE (150°)4.5 mphFogPartial Fog
9:00 AM33.8 °F33.8 °F100 %30.18 in0.4 miSSE (150°)6.9 mphFogLight Drizzle
9:30 AM33.8 °F33.8 °F100 %30.18 in0.3 miSSE (150°)6.9 mphFogFog
10:00 AM33.0 °F33.0 °F100 %30.21 in0.0 miSE (140°)4.5 mphRainLight Drizzle
10:00 AM35.6 °F35.6 °F100 %30.18 in0.4 miSSE (160°)9.2 mphFogLight Drizzle
10:30 AM35.6 °F35.6 °F100 %30.18 in0.2 miSSE (160°)6.9 mphFogFog
11:00 AM34.0 °F34.0 °F99 %30.22 in0.0 miSSE (150°)4.5 mphRainLight Drizzle
11:00 AM35.6 °F35.6 °F100 %30.18 in0.4 miSSE (160°)9.2 mphFogLight Drizzle
11:30 AM35.6 °F35.6 °F100 %30.18 in0.5 miSouth (170°)9.2 mphFogLight Drizzle
12:00 PM35.6 °F35.6 °F100 %30.18 inSSE (160°)9.2 mphFogLight Drizzle
12:00 PM34.0 °F34.0 °F100 %30.22 in1.0 miSSE (160°)4.5 mphRainLight Drizzle
12:30 PM35.6 °F35.6 °F100 %30.18 in0.4 miSSE (160°)9.2 mphFogLight Drizzle
1:00 PM35.0 °F34.0 °F96 %30.22 in1.0 miSSE (160°)4.5 mphMist
1:00 PM35.6 °F35.6 °F100 %30.18 inSSE (160°)9.2 mphFogLight Drizzle
1:30 PM35.6 °F35.6 °F100 %30.18 in0.4 miSSE (160°)9.2 mphFogLight Drizzle
2:00 PM35.0 °F34.0 °F96 %30.21 in1.0 miSouth (170°)4.5 mphMist
2:00 PM35.6 °F35.6 °F100 %30.18 in0.4 miSouth (170°)9.2 mphFogLight Drizzle
2:30 PM37.4 °F35.6 °F93 %30.18 in0.8 miSouth (180°)9.2 mphLight Drizzle
3:00 PM37.4 °F37.4 °F100 %30.18 in1.2 miSouth (170°)11.5 mphMostly Cloudy
3:00 PM35.0 °F34.0 °F96 %30.21 in1.0 miSSE (160°)2.2 mphMist
3:30 PM37.4 °F37.4 °F100 %30.18 in1.2 miSouth (180°)6.9 mphMostly Cloudy
4:00 PM35.0 °F35.0 °F100 %30.21 in1.0 miSSE (160°)2.2 mphMist
4:00 PM37.4 °F37.4 °F100 %30.18 in1.6 miSSE (160°)9.2 mphOvercast
4:30 PM37.4 °F37.4 °F100 %30.18 in1.9 miSouth (180°)6.9 mphMostly Cloudy
5:00 PM35.0 °F35.0 °F100 %30.21 in1.0 miSSE (160°)2.2 mphMist
5:00 PM37.4 °F37.4 °F100 %30.18 inSouth (180°)6.9 mphOvercast
5:30 PM37.4 °F37.4 °F100 %30.18 inSouth (180°)6.9 mphOvercast
6:00 PM34.0 °F34.0 °F100 %30.22 in1.0 miCalm (180°)Mist
6:00 PM37.4 °F37.4 °F100 %30.18 in3.1 miSouth (170°)6.9 mphMostly Cloudy
6:30 PM37.4 °F35.6 °F93 %30.21 inSouth (180°)4.6 mphMostly Cloudy
7:00 PM34.0 °F34.0 °F99 %30.24 in2.0 miCalmMist
7:00 PM37.4 °F37.4 °F100 %30.21 inVariable2.3 mphRainLight Rain
7:30 PM37.4 °F37.4 °F100 %30.21 in1.6 miSouth (170°)2.3 mphRainLight Rain
8:00 PM37.4 °F37.4 °F100 %30.21 in1.6 miSouth (190°)2.3 mphRainLight Rain
8:00 PM34.0 °F34.0 °F98 %30.24 in2.0 miCalm (230°)Mist
8:30 PM37.4 °F35.6 °F93 %30.21 in1.2 miCalmRainLight Rain
9:00 PM34.0 °F34.0 °F98 %30.24 in2.0 miCalm (220°)Mist
9:00 PM37.4 °F35.6 °F93 %30.21 in1.9 miCalmOvercast
10:00 PM34.0 °F34.0 °F98 %30.26 in2.0 miCalmMist
10:00 PM37.4 °F37.4 °F100 %30.21 inCalmOvercast
11:00 PM33.0 °F33.0 °F100 %30.27 in2.0 miCalm (210°)Mist
11:00 PM37.4 °F35.6 °F93 %30.24 in3.7 miSouth (170°)2.3 mphOvercast
Hourly data recorded from LRBC, located miles away from Bacau, Romania







STORIES FROM OUR PARTNERS